SL-8 R/B

Satellite information

Favourite Embed

Satellite Type and Status

ROCKET BODYIN ORBIT

Key statistics

Satellite SL-8 R/B at a glance.

Uptime

17894

Days in orbit

Revolutions

≈ 13.8

Per day

Orbit

LEO

Low Earth Orbit

Inclination

82.9

Latest

Satellite identification and parameters

Extended collection of information and parameters for SL-8 R/B.

Object identification

Identified? True

Debris? False

Object name: SL-8 R/B

International designator: 1976-108B

Object number (NORAD): 9510

Object ID (CCSDS): 9510

Country: COMMONWEALTH OF INDEPENDENT STATES (CIS)

Current information (Y/N): Y

RCS size: LARGE

Orbital parameters

Period: 104.51 minutes

Inclination: 82.9335 deg

SMA: 7349.641 km

Apoapsis: 989.558 km

Periapsis: 953.453 km

RAAN: 271.8944 deg

Eccentricy: 0.00245625

Argument of periapsis: 271.3465 deg

Mean anomaly: 88.4879 deg

Mean motion: 13.778552 rev/day

Mean motion (dot): 0.00000025 rev/day2

B* drag term: 0.000009804565 1/REarth

Two-line elements (TLE)

Creation date: Oct. 26, 2025, 2:54 a.m.

Reference frame: TEME

Reference center: EARTH

Epoch: Oct. 25, 2025, 9:37 p.m. UTC

TLE line 0: 0 SL-8 R/B

TLE line 1: 1 09510U 76108B 25298.90118803 .00000025 00000-0 98046-5 0 9992

TLE line 2: 2 09510 82.9335 271.8944 0024562 271.3465 88.4879 13.77855200461798

Live tracking on map

Real-time ground track for satellite SL-8 R/B.

In-orbit conjunctions

A list of the most updated potential collisions computed for object SL-8 R/B.

Target Orbit TCA Probability of collision Miss distance Type
THORAD AGENA D DEB SSO 2025-05-31 13:54:48 0.0001531208 322.0 (m) DEBRIS

Associated space launch

Navigation satellite providing location information for the Tsiklon-B navigation system

SL-8 R/B was lifted into orbit during the mission ‘Kosmos-3M | Parus 6’, on board a Kosmos-3M space rocket.

The launch took place on Oct. 29, 1976, 12:39 p.m. from 132/2.

For more information about the launch, click the button.

Launch to space Kosmos-3M | Parus 6
Kosmos-3M | Parus 6

Agency: N/A

Status: Launch Successful

Launch date: Oct. 29, 1976, 12:39 p.m. UTC

Rocket: Kosmos-3M

Launch pad: 132/2

Location: Plesetsk Cosmodrome, Russian Federation

...

Latest news about this satellite

There are no fresh news available about this satellite. Check back as we update our databases every day.


Newsletter sign-up

Weekly statistics, charts and insights to help you stay on top of the space industry.